Location: Great Malvern
(52.1167°N, 2.3167°W)
Time: 07:38:26
(UTC+00:00)

In-Cosmos 22 - Pass Details

Date: 18 September 2020
Orbit: 785 x 877 km, 81.2° (Epoch: 21 October)

Event Time Altitude Azimuth Distance (km) Brightness Sun altitude
Rises 19:06:54 0° 349° (N) 3,291 7.6 -8.5°
Reaches altitude 10° 19:09:20 10° 355° (N) 2,357 6.8 -8.9°
Maximum altitude 19:14:31 52° 72° (ENE) 976 4.3 -9.7°
Drops below altitude 10° 19:19:42 10° 148° (SSE) 2,362 6.1 -10.4°
Enters shadow 19:21:27 - 152° (SSE) 3,032 6.7 -10.7°
